"Period start","avg(HW err(1)/warn(2) (#))","avg(Visibility (m))","avg(Weather code (#))","avg(Precip intensity (mm/h))","min(HW err(1)/warn(2) (#))","max(HW err(1)/warn(2) (#))","std(HW err(1)/warn(2) (#))","med(HW err(1)/warn(2) (#))","min(Visibility (m))","max(Visibility (m))","std(Visibility (m))","med(Visibility (m))","min(Weather code (#))","max(Weather code (#))","std(Weather code (#))","med(Weather code (#))","min(Precip intensity (mm/h))","max(Precip intensity (mm/h))","std(Precip intensity (mm/h))","med(Precip intensity (mm/h))"
2013-10-03 00:00:00,1,,,,1,1,0,1,,,,,,,,,,,,
2013-10-03 00:10:00,1,,,,1,1,0,1,,,,,,,,,,,,
2013-10-03 00:20:00,1,,,,1,1,0,1,,,,,,,,,,,,
2013-10-03 00:30:00,1,,,,1,1,0,1,,,,,,,,,,,,
2013-10-03 00:40:00,1,,,,1,1,0,1,,,,,,,,,,,,
2013-10-03 00:50:00,1,,,,1,1,0,1,,,,,,,,,,,,
2013-10-03 01:00:00,1,,,,1,1,0,1,,,,,,,,,,,,
2013-10-03 01:10:00,1,,,,1,1,0,1,,,,,,,,,,,,
2013-10-03 01:20:00,1,,,,1,1,0,1,,,,,,,,,,,,
2013-10-03 01:30:00,1,,,,1,1,0,1,,,,,,,,,,,,
2013-10-03 01:40:00,1,,,,1,1,0,1,,,,,,,,,,,,
2013-10-03 01:50:00,1,,,,1,1,0,1,,,,,,,,,,,,
2013-10-03 02:00:00,1,,,,1,1,0,1,,,,,,,,,,,,
2013-10-03 02:10:00,1,,,,1,1,0,1,,,,,,,,,,,,
2013-10-03 02:20:00,1,,,,1,1,0,1,,,,,,,,,,,,
2013-10-03 02:30:00,1,,,,1,1,0,1,,,,,,,,,,,,
2013-10-03 02:40:00,1,,,,1,1,0,1,,,,,,,,,,,,
2013-10-03 02:50:00,1,,,,1,1,0,1,,,,,,,,,,,,
2013-10-03 03:00:00,1,,,,1,1,0,1,,,,,,,,,,,,
2013-10-03 03:10:00,1,,,,1,1,0,1,,,,,,,,,,,,
2013-10-03 03:20:00,1,,,,1,1,0,1,,,,,,,,,,,,
2013-10-03 03:30:00,1,,,,1,1,0,1,,,,,,,,,,,,
2013-10-03 03:40:00,1,,,,1,1,0,1,,,,,,,,,,,,
2013-10-03 03:50:00,1,,,,1,1,0,1,,,,,,,,,,,,
2013-10-03 04:00:00,1,,,,1,1,0,1,,,,,,,,,,,,
2013-10-03 04:10:00,1,,,,1,1,0,1,,,,,,,,,,,,
2013-10-03 04:20:00,1,,,,1,1,0,1,,,,,,,,,,,,
2013-10-03 04:30:00,1,,,,1,1,0,1,,,,,,,,,,,,
2013-10-03 04:40:00,1,,,,1,1,0,1,,,,,,,,,,,,
2013-10-03 04:50:00,1,,,,1,1,0,1,,,,,,,,,,,,
2013-10-03 05:00:00,1,,,,1,1,0,1,,,,,,,,,,,,
2013-10-03 05:10:00,1,,,,1,1,0,1,,,,,,,,,,,,
2013-10-03 05:20:00,1,,,,1,1,0,1,,,,,,,,,,,,
2013-10-03 05:30:00,1,,,,1,1,0,1,,,,,,,,,,,,
2013-10-03 05:40:00,1,,,,1,1,0,1,,,,,,,,,,,,
2013-10-03 05:50:00,1,,,,1,1,0,1,,,,,,,,,,,,
2013-10-03 06:00:00,1,,,,1,1,0,1,,,,,,,,,,,,
2013-10-03 06:10:00,1,,,,1,1,0,1,,,,,,,,,,,,
2013-10-03 06:20:00,1,,,,1,1,0,1,,,,,,,,,,,,
2013-10-03 06:30:00,2,20076,71,0.09,1,2,0,2,12329,38153,9257,16810,71,71,0,71,0.00,0.20,0.07,0.05
2013-10-03 06:40:00,2,14917,71,0.07,2,2,0,2,10497,22574,3670,13835,71,71,0,71,0.00,0.40,0.11,0.05
2013-10-03 06:50:00,2,19237,73,0.06,2,2,0,2,14202,22620,2604,18830,71,77,3,71,0.00,0.15,0.04,0.05
2013-10-03 07:00:00,2,25522,71,0.08,2,2,0,2,17715,35006,5738,24467,71,71,0,71,0.05,0.15,0.04,0.08
2013-10-03 07:10:00,2,18597,73,0.19,2,2,0,2,10564,41795,8431,16610,71,77,3,71,0.00,0.35,0.12,0.23
2013-10-03 07:20:00,2,36781,72,0.06,2,2,0,2,20638,50000,11897,38516,71,77,2,71,0.00,0.30,0.10,0.00
2013-10-03 07:30:00,2,45528,76,0.00,2,2,0,2,34209,50000,4805,47730,71,78,3,77,0.00,0.00,0.00,0.00
2013-10-03 07:40:00,2,47254,78,0.00,2,2,0,2,33343,50000,4903,49633,78,78,0,78,0.00,0.00,0.00,0.00
2013-10-03 07:50:00,2,40504,78,0.02,2,2,0,2,31543,50000,6307,39226,78,78,0,78,0.00,0.05,0.02,0.00
2013-10-03 08:00:00,2,42857,76,0.02,2,2,0,2,33042,50000,4905,43432,71,78,3,78,0.00,0.10,0.03,0.00
2013-10-03 08:10:00,2,49854,78,0.00,2,2,0,2,48544,50000,437,50000,78,78,0,78,0.00,0.00,0.00,0.00
2013-10-03 08:20:00,2,46696,62,0.01,2,2,0,2,37734,50000,4622,50000,0,78,31,78,0.00,0.05,0.02,0.00
2013-10-03 08:30:00,2,33790,53,0.00,2,2,0,2,23205,50000,10194,31109,0,78,35,74,0.00,0.00,0.00,0.00
2013-10-03 08:40:00,2,32460,78,0.01,2,2,0,2,26386,39369,4290,30948,78,78,0,78,0.00,0.05,0.02,0.00
2013-10-03 08:50:00,2,49631,23,0.00,2,2,0,2,46310,50000,1107,50000,0,78,36,0,0.00,0.00,0.00,0.00
2013-10-03 09:00:00,2,49990,14,0.00,2,2,0,2,49900,50000,30,50000,0,71,28,0,0.00,0.00,0.00,0.00
2013-10-03 09:10:00,2,49390,78,0.00,2,2,0,2,47269,50000,975,50000,78,78,0,78,0.00,0.00,0.00,0.00
2013-10-03 09:20:00,2,49710,77,0.01,2,2,0,2,47637,50000,701,50000,71,78,3,78,0.00,0.05,0.02,0.00
2013-10-03 09:30:00,2,50000,0,0.00,2,2,0,2,50000,50000,0,50000,0,0,0,0,0.00,0.00,0.00,0.00
2013-10-03 09:40:00,2,49147,15,0.01,2,2,0,2,42101,50000,2356,50000,0,71,24,0,0.00,0.05,0.02,0.00
2013-10-03 09:50:00,2,44311,74,0.02,2,2,0,2,34313,50000,4899,45501,71,77,3,74,0.00,0.05,0.02,0.00
2013-10-03 10:00:00,2,43351,75,0.00,2,2,0,2,34373,50000,6343,44516,71,78,3,77,0.00,0.00,0.00,0.00
2013-10-03 10:10:00,2,49915,22,0.00,2,2,0,2,49150,50000,255,50000,0,77,33,0,0.00,0.00,0.00,0.00
2013-10-03 10:20:00,2,50000,0,0.00,2,2,0,2,50000,50000,0,50000,0,0,0,0,0.00,0.00,0.00,0.00
2013-10-03 10:30:00,2,50000,0,0.00,2,2,0,2,50000,50000,0,50000,0,0,0,0,0.00,0.00,0.00,0.00
2013-10-03 10:40:00,2,50000,0,0.00,2,2,0,2,50000,50000,0,50000,0,0,0,0,0.00,0.00,0.00,0.00
2013-10-03 10:50:00,2,50000,0,0.00,2,2,0,2,50000,50000,0,50000,0,0,0,0,0.00,0.00,0.00,0.00
2013-10-03 11:00:00,2,50000,0,0.00,2,2,0,2,50000,50000,0,50000,0,0,0,0,0.00,0.00,0.00,0.00
2013-10-03 11:10:00,2,50000,0,0.00,2,2,0,2,50000,50000,0,50000,0,0,0,0,0.00,0.00,0.00,0.00
2013-10-03 11:20:00,2,50000,0,0.00,2,2,0,2,50000,50000,0,50000,0,0,0,0,0.00,0.00,0.00,0.00
2013-10-03 11:30:00,2,50000,0,0.00,2,2,0,2,50000,50000,0,50000,0,0,0,0,0.00,0.00,0.00,0.00
2013-10-03 11:40:00,2,50000,0,0.00,2,2,0,2,50000,50000,0,50000,0,0,0,0,0.00,0.00,0.00,0.00
2013-10-03 11:50:00,2,50000,0,0.00,2,2,0,2,50000,50000,0,50000,0,0,0,0,0.00,0.00,0.00,0.00
2013-10-03 12:00:00,2,50000,0,0.00,2,2,0,2,50000,50000,0,50000,0,0,0,0,0.00,0.00,0.00,0.00
2013-10-03 12:10:00,2,50000,0,0.00,2,2,0,2,50000,50000,0,50000,0,0,0,0,0.00,0.00,0.00,0.00
2013-10-03 12:20:00,2,50000,0,0.00,2,2,0,2,50000,50000,0,50000,0,0,0,0,0.00,0.00,0.00,0.00
2013-10-03 12:30:00,2,48960,0,0.00,2,2,0,2,44466,50000,2086,50000,0,0,0,0,0.00,0.00,0.00,0.00
2013-10-03 12:40:00,2,50000,0,0.00,2,2,0,2,50000,50000,0,50000,0,0,0,0,0.00,0.00,0.00,0.00
2013-10-03 12:50:00,2,49844,0,0.00,2,2,0,2,48706,50000,388,50000,0,0,0,0,0.00,0.00,0.00,0.00
2013-10-03 13:00:00,2,50000,0,0.00,2,2,0,2,50000,50000,0,50000,0,0,0,0,0.00,0.00,0.00,0.00
2013-10-03 13:10:00,2,50000,0,0.00,2,2,0,2,50000,50000,0,50000,0,0,0,0,0.00,0.00,0.00,0.00
2013-10-03 13:20:00,2,50000,0,0.00,2,2,0,2,50000,50000,0,50000,0,0,0,0,0.00,0.00,0.00,0.00
2013-10-03 13:30:00,2,49961,0,0.00,2,2,0,2,49609,50000,117,50000,0,0,0,0,0.00,0.00,0.00,0.00
2013-10-03 13:40:00,2,50000,0,0.00,2,2,0,2,50000,50000,0,50000,0,0,0,0,0.00,0.00,0.00,0.00
2013-10-03 13:50:00,2,50000,0,0.00,2,2,0,2,50000,50000,0,50000,0,0,0,0,0.00,0.00,0.00,0.00
2013-10-03 14:00:00,2,50000,0,0.00,2,2,0,2,50000,50000,0,50000,0,0,0,0,0.00,0.00,0.00,0.00
2013-10-03 14:10:00,2,50000,0,0.00,2,2,0,2,50000,50000,0,50000,0,0,0,0,0.00,0.00,0.00,0.00
2013-10-03 14:20:00,2,50000,0,0.00,2,2,0,2,50000,50000,0,50000,0,0,0,0,0.00,0.00,0.00,0.00
2013-10-03 14:30:00,2,50000,0,0.00,2,2,0,2,50000,50000,0,50000,0,0,0,0,0.00,0.00,0.00,0.00
2013-10-03 14:40:00,2,50000,0,0.00,2,2,0,2,50000,50000,0,50000,0,0,0,0,0.00,0.00,0.00,0.00
2013-10-03 14:50:00,2,50000,0,0.00,2,2,0,2,50000,50000,0,50000,0,0,0,0,0.00,0.00,0.00,0.00
2013-10-03 15:00:00,2,50000,0,0.00,2,2,0,2,50000,50000,0,50000,0,0,0,0,0.00,0.00,0.00,0.00
2013-10-03 15:10:00,2,50000,0,0.00,2,2,0,2,50000,50000,0,50000,0,0,0,0,0.00,0.00,0.00,0.00
2013-10-03 15:20:00,2,50000,0,0.00,2,2,0,2,50000,50000,0,50000,0,0,0,0,0.00,0.00,0.00,0.00
2013-10-03 15:30:00,2,50000,0,0.00,2,2,0,2,50000,50000,0,50000,0,0,0,0,0.00,0.00,0.00,0.00
2013-10-03 15:40:00,2,50000,0,0.00,2,2,0,2,50000,50000,0,50000,0,0,0,0,0.00,0.00,0.00,0.00
2013-10-03 15:50:00,2,50000,0,0.00,2,2,0,2,50000,50000,0,50000,0,0,0,0,0.00,0.00,0.00,0.00
2013-10-03 16:00:00,2,50000,0,0.00,2,2,0,2,50000,50000,0,50000,0,0,0,0,0.00,0.00,0.00,0.00
2013-10-03 16:10:00,2,50000,0,0.00,2,2,0,2,50000,50000,0,50000,0,0,0,0,0.00,0.00,0.00,0.00
2013-10-03 16:20:00,2,50000,0,0.00,2,2,0,2,50000,50000,0,50000,0,0,0,0,0.00,0.00,0.00,0.00
2013-10-03 16:30:00,2,50000,0,0.00,2,2,0,2,50000,50000,0,50000,0,0,0,0,0.00,0.00,0.00,0.00
2013-10-03 16:40:00,2,50000,0,0.00,2,2,0,2,50000,50000,0,50000,0,0,0,0,0.00,0.00,0.00,0.00
2013-10-03 16:50:00,2,50000,0,0.00,2,2,0,2,50000,50000,0,50000,0,0,0,0,0.00,0.00,0.00,0.00
2013-10-03 17:00:00,2,50000,0,0.00,2,2,0,2,50000,50000,0,50000,0,0,0,0,0.00,0.00,0.00,0.00
2013-10-03 17:10:00,2,50000,0,0.00,2,2,0,2,50000,50000,0,50000,0,0,0,0,0.00,0.00,0.00,0.00
2013-10-03 17:20:00,2,50000,0,0.00,2,2,0,2,50000,50000,0,50000,0,0,0,0,0.00,0.00,0.00,0.00
2013-10-03 17:30:00,2,50000,0,0.00,2,2,0,2,50000,50000,0,50000,0,0,0,0,0.00,0.00,0.00,0.00
2013-10-03 17:40:00,2,50000,0,0.00,2,2,0,2,50000,50000,0,50000,0,0,0,0,0.00,0.00,0.00,0.00
2013-10-03 17:50:00,2,50000,0,0.00,2,2,0,2,50000,50000,0,50000,0,0,0,0,0.00,0.00,0.00,0.00
2013-10-03 18:00:00,2,50000,0,0.00,2,2,0,2,50000,50000,0,50000,0,0,0,0,0.00,0.00,0.00,0.00
2013-10-03 18:10:00,2,50000,0,0.00,2,2,0,2,50000,50000,0,50000,0,0,0,0,0.00,0.00,0.00,0.00
2013-10-03 18:20:00,2,50000,0,0.00,2,2,0,2,50000,50000,0,50000,0,0,0,0,0.00,0.00,0.00,0.00
2013-10-03 18:30:00,2,50000,0,0.00,2,2,0,2,50000,50000,0,50000,0,0,0,0,0.00,0.00,0.00,0.00
2013-10-03 18:40:00,2,50000,0,0.00,2,2,0,2,50000,50000,0,50000,0,0,0,0,0.00,0.00,0.00,0.00
2013-10-03 18:50:00,2,50000,0,0.00,2,2,0,2,50000,50000,0,50000,0,0,0,0,0.00,0.00,0.00,0.00
2013-10-03 19:00:00,2,50000,0,0.00,2,2,0,2,50000,50000,0,50000,0,0,0,0,0.00,0.00,0.00,0.00
2013-10-03 19:10:00,2,50000,0,0.00,2,2,0,2,50000,50000,0,50000,0,0,0,0,0.00,0.00,0.00,0.00
2013-10-03 19:20:00,2,50000,0,0.00,2,2,0,2,50000,50000,0,50000,0,0,0,0,0.00,0.00,0.00,0.00
2013-10-03 19:30:00,2,50000,0,0.00,2,2,0,2,50000,50000,0,50000,0,0,0,0,0.00,0.00,0.00,0.00
2013-10-03 19:40:00,2,50000,0,0.00,2,2,0,2,50000,50000,0,50000,0,0,0,0,0.00,0.00,0.00,0.00
2013-10-03 19:50:00,2,50000,0,0.00,2,2,0,2,50000,50000,0,50000,0,0,0,0,0.00,0.00,0.00,0.00
2013-10-03 20:00:00,2,50000,0,0.00,2,2,0,2,50000,50000,0,50000,0,0,0,0,0.00,0.00,0.00,0.00
2013-10-03 20:10:00,2,50000,0,0.00,2,2,0,2,50000,50000,0,50000,0,0,0,0,0.00,0.00,0.00,0.00
2013-10-03 20:20:00,2,50000,0,0.00,2,2,0,2,50000,50000,0,50000,0,0,0,0,0.00,0.00,0.00,0.00
2013-10-03 20:30:00,2,50000,0,0.00,2,2,0,2,50000,50000,0,50000,0,0,0,0,0.00,0.00,0.00,0.00
2013-10-03 20:40:00,2,50000,0,0.00,2,2,0,2,50000,50000,0,50000,0,0,0,0,0.00,0.00,0.00,0.00
2013-10-03 20:50:00,2,50000,0,0.00,2,2,0,2,50000,50000,0,50000,0,0,0,0,0.00,0.00,0.00,0.00
2013-10-03 21:00:00,2,50000,0,0.00,2,2,0,2,50000,50000,0,50000,0,0,0,0,0.00,0.00,0.00,0.00
2013-10-03 21:10:00,2,50000,0,0.00,2,2,0,2,50000,50000,0,50000,0,0,0,0,0.00,0.00,0.00,0.00
2013-10-03 21:20:00,2,49935,0,0.00,2,2,0,2,49354,50000,194,50000,0,0,0,0,0.00,0.00,0.00,0.00
2013-10-03 21:30:00,2,50000,0,0.00,2,2,0,2,50000,50000,0,50000,0,0,0,0,0.00,0.00,0.00,0.00
2013-10-03 21:40:00,2,50000,0,0.00,2,2,0,2,50000,50000,0,50000,0,0,0,0,0.00,0.00,0.00,0.00
2013-10-03 21:50:00,2,50000,0,0.00,2,2,0,2,50000,50000,0,50000,0,0,0,0,0.00,0.00,0.00,0.00
2013-10-03 22:00:00,2,50000,0,0.00,2,2,0,2,50000,50000,0,50000,0,0,0,0,0.00,0.00,0.00,0.00
2013-10-03 22:10:00,2,50000,0,0.00,2,2,0,2,50000,50000,0,50000,0,0,0,0,0.00,0.00,0.00,0.00
2013-10-03 22:20:00,2,50000,0,0.00,2,2,0,2,50000,50000,0,50000,0,0,0,0,0.00,0.00,0.00,0.00
2013-10-03 22:30:00,2,50000,0,0.00,2,2,0,2,50000,50000,0,50000,0,0,0,0,0.00,0.00,0.00,0.00
2013-10-03 22:40:00,2,50000,0,0.00,2,2,0,2,50000,50000,0,50000,0,0,0,0,0.00,0.00,0.00,0.00
2013-10-03 22:50:00,2,49813,0,0.00,2,2,0,2,48881,50000,383,50000,0,0,0,0,0.00,0.00,0.00,0.00
2013-10-03 23:00:00,2,49232,0,0.00,2,2,0,2,45886,50000,1541,50000,0,0,0,0,0.00,0.00,0.00,0.00
2013-10-03 23:10:00,2,49198,0,0.00,2,2,0,2,44194,50000,1746,50000,0,0,0,0,0.00,0.00,0.00,0.00
2013-10-03 23:20:00,2,49162,0,0.00,2,2,0,2,45052,50000,1710,50000,0,0,0,0,0.00,0.00,0.00,0.00
2013-10-03 23:30:00,2,49576,0,0.00,2,2,0,2,47624,50000,788,50000,0,0,0,0,0.00,0.00,0.00,0.00
2013-10-03 23:40:00,2,49098,0,0.00,2,2,0,2,46444,50000,1207,50000,0,0,0,0,0.00,0.00,0.00,0.00
2013-10-03 23:50:00,2,48859,0,0.00,2,2,0,2,42504,50000,2257,50000,0,0,0,0,0.00,0.00,0.00,0.00
